Weather History for KECP - November, 2011

Change the Weather History Date:

Monday, November 28, 2011

  Actual Average Record
Temperature  
Mean Temperature 53 °F -  
Max Temperature 62 °F - 63 °F (2010)
Min Temperature 43 °F - 29 °F (2013)
Degree Days  
Heating Degree Days 12    
Cooling Degree Days 0    
Growing Degree Days 3 (Base 50)    
Moisture  
Dew Point 48 °F    
Average Humidity 84    
Maximum Humidity 100    
Minimum Humidity 55    
Precipitation  
Precipitation 0.06 in - 0.06 in (2011)
Month to date precipitation  
Year to date precipitation  
Sea Level Pressure  
Sea Level Pressure 29.91 in    
Wind  
Wind Speed 8 mph (West)    
Max Wind Speed 17 mph    
Max Gust Speed 23 mph    
Visibility 10 miles    
Events Rain    
T = Trace of Precipitation, MM = Missing Value Source: NWS Daily Summary

Daily Weather History Graph

Daily Weather History Graph

Search for Another Location

Airport or City:

Trip Planner

Search our weather history database for the weather conditions in past years. The results will help you decide how hot, cold, wet, or windy it might be!

Date:

Astronomy

Nov. 28, 2011 Rise Set
Actual Time 7:19 AM EST 5:42 PM EST
Civil Twilight 6:53 AM EST 6:08 PM EST
Nautical Twilight 6:24 AM EST 6:37 PM EST
Astronomical Twilight 5:55 AM EST 7:06 PM EST
Moon 10:30 AM EST (11/28) 9:25 PM EST (11/28)
Length of Visible Light 11h 14m
Length of Day
10h 22m
Waxing Crescent, 15% of the Moon is Illuminated
Nov 28
Waxing Crescent
Dec 2
First Quarter
Dec 10
Full
Dec 17
Last Quarter
Dec 24
New

Hourly Weather History & Observations

Time (EST) Temp. Windchill Dew Point Humidity Pressure Visibility Wind Dir Wind Speed Gust Speed Precip Events Conditions
12:25 AM 62.6 °F - 60.8 °F 94% 29.85 in 10.0 mi West 3.5 mph - 0.00 in Rain Rain
12:53 AM 62.1 °F - 60.1 °F 93% 29.87 in 10.0 mi Calm Calm - 0.00 in Rain Rain
1:53 AM 61.0 °F - 60.1 °F 97% 29.87 in 6.0 mi SW 5.8 mph - 0.00 in Rain Rain
2:05 AM 60.8 °F - 60.8 °F 100% 29.84 in 8.0 mi SW 8.1 mph - 0.00 in Rain Rain
2:21 AM 59.0 °F - 57.2 °F 94% 29.84 in 10.0 mi WSW 12.7 mph - 0.00 in Rain Rain
2:30 AM 59.0 °F - 57.2 °F 94% 29.84 in 10.0 mi WSW 10.4 mph - 0.00 in Rain Rain
2:53 AM 57.0 °F - 55.9 °F 96% 29.87 in 10.0 mi WSW 12.7 mph 19.6 mph 0.00 in Rain Rain
3:03 AM 57.2 °F - 55.4 °F 94% 29.84 in 10.0 mi West 12.7 mph - 0.00 in Rain Rain
3:53 AM 54.0 °F - 53.1 °F 97% 29.88 in 10.0 mi West 11.5 mph - 0.00 in Rain Rain
4:42 AM 53.6 °F - 51.8 °F 94% 29.87 in 10.0 mi West 9.2 mph - 0.00 in Rain Rain
4:53 AM 53.1 °F - 51.1 °F 93% 29.90 in 10.0 mi WSW 9.2 mph - 0.00 in Rain Rain
5:21 AM 51.8 °F - 48.2 °F 88% 29.86 in 10.0 mi West 11.5 mph - 0.00 in Rain Rain
5:33 AM 51.8 °F - 48.2 °F 88% 29.87 in 9.0 mi West 12.7 mph - 0.00 in Rain Rain
5:53 AM 50.0 °F - 46.9 °F 89% 29.91 in 10.0 mi West 8.1 mph - 0.00 in Rain Rain
6:11 AM 50.0 °F - 46.4 °F 87% 29.88 in 10.0 mi West 10.4 mph - 0.00 in Rain Rain
6:53 AM 48.9 °F - 45.0 °F 86% 29.93 in 10.0 mi West 9.2 mph - 0.00 in   Overcast
7:53 AM 48.9 °F - 46.0 °F 90% 29.95 in 10.0 mi WNW 6.9 mph - N/A   Overcast
8:28 AM 48.2 °F - 46.4 °F 93% 29.92 in 10.0 mi West 10.4 mph - N/A   Overcast
8:48 AM 48.2 °F - 44.6 °F 87% 29.92 in 10.0 mi WNW 10.4 mph - N/A   Overcast
8:53 AM 48.9 °F - 45.0 °F 86% 29.96 in 10.0 mi WNW 11.5 mph - N/A   Overcast
9:53 AM 48.0 °F - 44.1 °F 86% 29.98 in 10.0 mi West 10.4 mph - N/A   Overcast
10:53 AM 50.0 °F - 41.0 °F 71% 29.98 in 10.0 mi West 12.7 mph 23.0 mph N/A   Mostly Cloudy
11:53 AM 52.0 °F - 41.0 °F 66% 29.96 in 10.0 mi West 12.7 mph 19.6 mph N/A   Mostly Cloudy
12:53 PM 57.0 °F - 42.1 °F 57% 29.94 in 10.0 mi WSW 16.1 mph 20.7 mph N/A   Scattered Clouds
1:53 PM 57.0 °F - 42.1 °F 57% 29.92 in 10.0 mi West 17.3 mph - N/A   Mostly Cloudy
2:53 PM 55.9 °F - 39.9 °F 55% 29.91 in 10.0 mi West 15.0 mph 21.9 mph N/A   Partly Cloudy
3:53 PM 55.0 °F - 41.0 °F 59% 29.91 in 10.0 mi West 13.8 mph - N/A   Mostly Cloudy
4:53 PM 53.1 °F - 42.1 °F 66% 29.91 in 10.0 mi West 9.2 mph - N/A   Overcast
5:53 PM 51.1 °F - 39.9 °F 66% 29.93 in 10.0 mi West 4.6 mph - 0.00 in Rain Light Rain
6:53 PM 48.9 °F - 45.0 °F 86% 29.96 in 8.0 mi South 3.5 mph - 0.04 in Rain Light Rain
7:53 PM 46.9 °F - 44.1 °F 90% 29.95 in 10.0 mi WNW 5.8 mph - 0.02 in   Overcast
8:53 PM 46.0 °F 43.1 °F 43.0 °F 89% 29.97 in 10.0 mi NW 5.8 mph - 0.00 in   Mostly Cloudy
9:53 PM 45.0 °F 41.8 °F 39.9 °F 82% 29.98 in 10.0 mi WNW 5.8 mph - N/A   Partly Cloudy
10:53 PM 44.1 °F 39.5 °F 39.9 °F 85% 29.99 in 10.0 mi West 8.1 mph - N/A   Mostly Cloudy
11:53 PM 43.0 °F 37.7 °F 39.0 °F 86% 30.00 in 10.0 mi WNW 9.2 mph - N/A   Overcast